COSMOS 2251 DEB, 35834

Orbit data source: Space-Track

COSMOS 2251 DEB, 35834 is space debris in LEO originally from a launch on Wed, 16 Jun 1993 UTC launched from the Plesetsk Missile And Space Complex (PKMTR). The debris from Iridium 33, an American commercial communications satellite, has been tracked extensively since its accidental collision with the defunct Russian satellite Cosmos 2251 in 2009. This event, occurring at high speed in low Earth orbit (LEO), generated thousands of pieces of space debris, significantly increasing the risk of further collisions. The Iridium 33 debris cloud has impacted space traffic management and orbital debris mitigation strategies, making it a subject of ongoing study in space situational awareness.

Loading next visibility...
Identifier
35834, 1993-036ATG
Orbit
LEO
Country
Flag of CISCIS
Related business
Manufacturer
Unknown
Mission
Spacecraft
Bus & Motor
Unknown
Mass
Unknown
Launch date (UTC)
1993-06-16 (33 years ago)
Launch vehicle
Unknown
Launch site
Plesetsk Missile And Space Complex (PKMTR)
Object type
Payload
Rocket body
Debris
Shape & HBR
Unknown shape, 0.1 m
Radar Cross Section
Small (<0.1 m²)

Expand to show TLE details & history
Last TLE update: 2 days ago

TLE from 2 days ago
0 COSMOS 2251 DEB
1 35834U 93036ATG 26263.15678223  .00000392  00000-0  21097-3 0  9993
2 35834  73.9326 163.6672 0110909 264.7044 246.5531 14.13163813702380
Epoch: 2026-09-20T03:45Z
TLE epoch observation values (Epoch: 2026-09-20T03:45:45.984Z)
Latitude
28.67448°
Longitude
-80.84434°
Altitude
884.411 km
Speed
7.396 km/s
True Right ascension
22h 18m 36s
True Declination
28° 31' 57"
Sunlit
Object was in full shadow at epoch
Visualization orbit readout
Latitude
Unknown
Longitude
Unknown
Altitude
Unknown
Speed
Unknown
Apparent Right ascension
Unknown
Apparent Declination
Unknown
Sunlit
N/A
Visualization observer readout
Local Sidereal Time
00:56:37
Azimuth
Unknown
Elevation
Unknown
Doppler factor
Unknown
Orbital elements
Apogee altitude
926.348 km
Perigee altitude
766.098 km
Semi-major axis
7,224.36 km
Eccentricity
0.01109
Inclination
73.9326°
RAAN
163.6672°
Arg. of periapsis
264.7044°
True anomaly
245.39359°
Mean anomaly
246.5531°
Eccentric anomaly
245.9727°
Mean motion
3.53463 °/min
Orbital period
101.85 mins
BSTAR
0.00021097

Documentation

Showing up to 5 results
|